This is the latest recevied weather packets stored in our database for station/object KI5RAB. If no packets are shown the sender has not sent any weather packets the latest 10 day(s).
| Time | Temp. | Humidity | Pressure | Rain* | Wind** | Luminosity | Snow |
|---|---|---|---|---|---|---|---|
| 1778157912 | 16.11° C | 85% | 1020.1 hPa | 0 mm | - | 16 W/m² | - |
| 1778157610 | 16.11° C | 84% | 1020 hPa | 0 mm | - | 11 W/m² | - |
| 1778157307 | 16.11° C | 84% | 1019.9 hPa | 0 mm | - | 8 W/m² | - |
| 1778157003 | 16.11° C | 84% | 1019.8 hPa | 0 mm | - | 8 W/m² | - |
| 1778156699 | 16.11° C | 83% | 1019.6 hPa | 0 mm | - | 9 W/m² | - |
| 1778156395 | 16.67° C | 83% | 1019.7 hPa | 0 mm | - | 6 W/m² | - |
| 1778156090 | 16.67° C | 83% | 1019.7 hPa | 0 mm | - | 6 W/m² | - |
| 1778155787 | 16.67° C | 82% | 1019.5 hPa | 0 mm | - | 4 W/m² | - |
| 1778155483 | 16.67° C | 82% | 1019.4 hPa | 0 mm | - | 3 W/m² | - |
| 1778155180 | 16.67° C | 82% | 1019 hPa | 0 mm | - | 2 W/m² | - |
| 1778154876 | 16.67° C | 82% | 1019.1 hPa | 0 mm | - | 1 W/m² | - |
| 1778154572 | 16.67° C | 82% | 1018.7 hPa | 0 mm | - | 1 W/m² | - |
| 1778154269 | 16.67° C | 82% | 1018.6 hPa | 0 mm | - | 1 W/m² | - |
| 1778153966 | 16.67° C | 82% | 1018.4 hPa | 0 mm | - | 0 W/m² | - |
| 1778153663 | 16.67° C | 82% | 1018.4 hPa | 0 mm | - | 0 W/m² | - |
| 1778153360 | 16.67° C | 82% | 1018.2 hPa | 0 mm | - | 0 W/m² | - |
| 1778153058 | 16.67° C | 82% | 1018.1 hPa | 0 mm | - | 0 W/m² | - |
| 1778152755 | 16.67° C | 82% | 1018.1 hPa | 0 mm | - | 0 W/m² | - |
| 1778152452 | 16.67° C | 82% | 1018 hPa | 0 mm | - | 0 W/m² | - |
| 1778152148 | 16.67° C | 82% | 1018 hPa | 0 mm | - | 0 W/m² | - |
| 1778151844 | 16.67° C | 82% | 1017.9 hPa | 0 mm | - | 0 W/m² | - |
| 1778151541 | 17.22° C | 82% | 1018.1 hPa | 0 mm | - | 0 W/m² | - |
| 1778151238 | 17.22° C | 82% | 1018 hPa | 0 mm | - | 0 W/m² | - |
| 1778150934 | 17.22° C | 82% | 1018 hPa | 0 mm | - | 0 W/m² | - |
| 1778150631 | 17.22° C | 81% | 1018 hPa | 0 mm | - | 0 W/m² | - |
* Rain latest hour (hover to see other rain measurements)
** Current wind speed in m/s (hover to see current wind gust speed)